Weather History for Belize, Belize

Change the Weather History Date:

Monday, August 6, 2012

  Actual Average Record
Temperature  
Mean Temperature 82 °F -  
Max Temperature 91 °F 89 °F 91 °F (2003)
Min Temperature 72 °F 76 °F 72 °F (2012)
Cooling Degree Days 16    
Growing Degree Days 32 (Base 50)    
Moisture  
Dew Point 79 °F    
Average Humidity 83    
Maximum Humidity 100    
Minimum Humidity 70    
Precipitation  
Precipitation 0.12 in 0.27 in - ()
Sea Level Pressure  
Sea Level Pressure 29.91 in    
Wind  
Wind Speed 4 mph ()    
Max Wind Speed 9 mph    
Max Gust Speed -    
Visibility 7.7 miles    
Events Rain , Thunderstorm    
Averages and records for this station are not official NWS values.
T = Trace of Precipitation, MM = Missing Value Source: Averaged Metar Reports

Daily Weather History Graph

Daily Weather History Graph

Search for Another Location

Airport:

Trip Planner

Search our weather history database for the weather conditions in past years. The results will help you decide how hot, cold, wet, or windy it might be!

Date:

Astronomy

Aug. 06, 2012 Rise Set
Actual Time 5:33 AM CST 6:23 PM CST
Civil Twilight 5:11 AM CST 6:46 PM CST
Nautical Twilight 4:44 AM CST 7:13 PM CST
Astronomical Twilight 4:16 AM CST 7:40 PM CST
Moon 9:30 PM CST (8/6) 9:29 AM CST (8/6)
Length of Visible Light 13h 35m
Length of Day
12h 50m
Waning Gibbous, 78% of the Moon is Illuminated
Aug 6
Waning Gibbous
Aug 9
Last Quarter
Aug 17
New
Aug 24
First Quarter
Aug 31
Full

Hourly Weather History & Observations

Time (CST) Temp. Heat Index Dew Point Humidity Pressure Visibility Wind Dir Wind Speed Gust Speed Precip Events Conditions
12:00 AM 80 °F - 78 °F 91% 29.99 in 12 mi Calm Calm - -   Scattered Clouds
5:00 AM 75.2 °F - 75.2 °F 100% 29.92 in 6.2 mi West 3.5 mph - N/A Rain Light Rain
6:00 AM 76 °F - 75 °F 96% 29.93 in 12 mi Calm Calm - - Rain Light Rain
6:00 AM 75.2 °F - 75.2 °F 100% 29.92 in 6.2 mi Calm Calm - N/A   Mostly Cloudy
7:00 AM 77.0 °F - 77.0 °F 100% 29.95 in 6.2 mi WNW 5.8 mph - N/A   Mostly Cloudy
8:00 AM 80.6 °F 87.1 °F 77.0 °F 89% 29.95 in 6.2 mi NW 6.9 mph - N/A   Scattered Clouds
9:00 AM 83 °F - 78 °F 82% 29.98 in 12 mi NNW 8.1 mph - -   Mostly Cloudy
9:00 AM 82.4 °F 92.4 °F 78.8 °F 89% 29.97 in 6.2 mi NNW 8.1 mph - N/A   Scattered Clouds
10:00 AM 86.0 °F 99.3 °F 78.8 °F 79% 29.95 in 6.2 mi NNW 8.1 mph - N/A   Scattered Clouds
11:00 AM 89.6 °F 108.2 °F 80.6 °F 75% 29.94 in 6.2 mi NNW 6.9 mph - N/A   Scattered Clouds
12:00 PM 89 °F - 80 °F 70% 29.94 in 12 mi North 4.6 mph - -   Mostly Cloudy
12:00 PM 89.6 °F 108.2 °F 80.6 °F 75% 29.93 in 6.2 mi North 4.6 mph - N/A   Scattered Clouds
1:00 PM 91.4 °F 114.3 °F 82.4 °F 75% 29.90 in 6.2 mi NE 5.8 mph - N/A   Scattered Clouds
2:00 PM 87.8 °F 108.2 °F 82.4 °F 84% 29.88 in 5.0 mi NW 4.6 mph - N/A Rain Light Rain Showers
2:10 PM 87.8 °F 108.2 °F 82.4 °F 84% 29.87 in 6.2 mi NW 5.8 mph - N/A   Mostly Cloudy
3:00 PM 87 °F - 82 °F 79% 29.88 in 12 mi WNW 4.6 mph - -  
3:00 PM 87.8 °F 108.2 °F 82.4 °F 84% 29.87 in 6.2 mi WNW 4.6 mph - N/A   Mostly Cloudy
4:00 PM 87.8 °F 104.9 °F 80.6 °F 79% 29.86 in 6.2 mi West 9.2 mph - N/A   Mostly Cloudy
5:00 PM 87.8 °F 99.7 °F 77.0 °F 70% 29.82 in 6.2 mi NW 4.6 mph - N/A   Mostly Cloudy
6:00 PM 86.0 °F 96.9 °F 77.0 °F 74% 29.85 in 6.2 mi Calm Calm - N/A   Mostly Cloudy
9:00 PM 83 °F - 77 °F 78% 29.90 in 9 mi NE 4.6 mph - - Rain , Thunderstorm Thunderstorms and Rain